Regional Weather Roundup
Issued by NWS

Home | Current Version | Previous Version | Graphics & Text | Print | Product List | Glossary On
Versions: 1 2 3 4 5 6 7 8 9 10 11 12 13 14 15 16 17 18 19 20 21 22 23 24 25 26 27 28 29 30 31 32 33 34 35 36 37 38 39 40 41 42 43 44 45 46 47 48 49 50
792
ASUS43 KDTX 162210
RWRMI
MICHIGAN HOURLY REGIONAL WEATHER ROUNDUP
NATIONAL WEATHER SERVICE DETROIT/PONTIAC MI
ISSUED BY NATIONAL WEATHER SERVICE GRAND RAPIDS MI
500 PM EST MON JAN 16 2017

NOTE: "FAIR" INDICATES FEW OR NO CLOUDS BELOW 12,000 FEET WITH NO
SIGNIFICANT WEATHER AND/OR OBSTRUCTION TO VISIBILITY.

MIZ047>049-052>055-059>063-066>070-074>076-081>083-162300-
SOUTHEAST LOWER MICHIGAN

CITY           SKY/WX    TMP DP  RH WIND       PRES   REMARKS
ADRIAN         CLOUDY    33  30  88 SE7       30.20S WCI  27
ALMA           CLOUDY    32  30  91 E5        30.21S FOG     WCI  27
ANN ARBOR      CLOUDY    34  27  75 NE6       30.20F WCI  29
BAD AXE        CLOUDY    33  23  67 S5        30.22F WCI  28
DETROIT        LGT RAIN  35  30  82 E5        30.23S WCI  31
FLINT          MIX PCPN  32  27  81 E5        30.22F WCI  27
GROSSE ILE     CLOUDY    33  30  88 E5        30.22F WCI  29
HILLSDALE      MIX PCPN  32  32 100 E10       30.15F VSB 1/2 WCI  24
HOWELL         MIX PCPN  32  28  85 E6        30.20S WCI  26

CITY           SKY/WX    TMP DP  RH WIND       PRES   REMARKS
JACKSON        CLOUDY    34  29  82 E8        30.17F WCI  27
LANSING        LGT RAIN  33  29  85 E6        30.20S FOG     WCI  28
MASON          MIX PCPN  32  31  96 E5        30.19F WCI  27
MONROE         CLOUDY    33  31  92 E7        30.21F WCI  27
MT. CLEMENS    CLOUDY    32  31  95 SE3       30.22F
PONTIAC        LGT RAIN  32  28  85 E6        30.19F FOG     WCI  26
PORT HOPE        N/A     35  21  56 CALM      30.21F
PORT HURON     LGT SNOW  32  28  86 CALM      30.25F
TRI CITIES     MIX PCPN  32  27  81 S5        30.22F WCI  27
YPSILANTI      CLOUDY    35  30  82 E6        30.22S WCI  30
$$
MIZ043>046-050>051-056>058-064>065-071>073-077>080-162300-
SOUTHWEST LOWER MICHIGAN

CITY           SKY/WX    TMP DP  RH WIND       PRES   REMARKS
BATTLE CREEK   LGT RAIN  35  34  96 E7        30.16S FOG     WCI  29
BENTON HARBOR  LGT RAIN  37  34  89 E10       30.09F FOG     WCI  30
BIG RAPIDS     FLURRIES  33  22  66 SE6       30.17F WCI  27
COLDWATER      LGT RAIN  35  35 100 SE7       30.15S VSB 1   WCI  29
HOLLAND        LGT RAIN  34  31  88 E8        30.14F WCI  27
GRAND RAPIDS   LGT RAIN  32  29  88 E12       30.17S FOG     WCI  23
KALAMAZOO      RAIN      36  33  89 E6        30.15S VSB 3/4 WCI  31
MARSHALL       LGT RAIN  34  33  94 E3        30.15S
MOUNT PLEASANT CLOUDY    32  26  77 SE3       30.21S
MUSKEGON       LGT RAIN  34  31  88 E9        30.15F FOG     WCI  27
STURGIS        MIX PCPN  34  34  99 SE9       30.13F VSB 1   WCI  27
$$
MIZ016>042-162300-
NORTHERN LOWER MICHIGAN

CITY           SKY/WX    TMP DP  RH WIND       PRES   REMARKS
ALPENA         CLOUDY    31  18  58 CALM      30.20R
BEAVER ISLAND  CLOUDY    34  28  80 SW5       30.17F WCI  30
BELLAIRE       CLOUDY    32  26  77 CALM      30.18F
CADILLAC       CLOUDY    35  22  59 SE3       30.15S
CHARLEVOIX     CLOUDY    34  26  74 CALM      30.20F
GAYLORD        CLOUDY    30  20  66 CALM      30.15S
HOUGHTON LAKE  CLOUDY    34  21  59 CALM      30.17F
MANISTEE       CLOUDY    36  29  75 E5        30.16F WCI  32
OSCODA         CLOUDY    33  24  68 SW3       30.20S
PELLSTON       CLOUDY    34  20  56 SW3       30.18S
TRAVERSE CITY  CLOUDY    36  24  62 CALM      30.18R
LUDINGTON      MIX PCPN  33  26  76 SE6       30.16F WCI  27
$$
MIZ007>008-015-162300-
EASTERN UPPER MICHIGAN

CITY           SKY/WX    TMP DP  RH WIND       PRES   REMARKS
KINROSS        CLOUDY    33  23  66 W3        30.15F
MACKINAC ISLAN CLOUDY    32  28  86 SW8       30.17R WCI  25
NEWBERRY       CLOUDY    26  21  82 S6        30.14S WCI  19
S. S. MARIE    CLEAR     31  21  66 N3        30.15S
$$
MIZ004>006-011>014-085-162300-
CENTRAL UPPER MICHIGAN

CITY           SKY/WX    TMP DP  RH WIND       PRES   REMARKS
MANISTIQUE     CLOUDY    28  24  82 CALM      30.15R
ESCANABA       CLOUDY    27  21  78 SE3       30.15F
SAWYER-GWINN   CLEAR     32  19  59 S7        30.10S WCI  26
$$
MIZ001>003-009>011-084-162300-
WESTERN UPPER MICHIGAN

CITY           SKY/WX    TMP DP  RH WIND       PRES   REMARKS
IRON MOUNTAIN  CLOUDY    30  17  58 E3        30.09F
HOUGHTON       CLEAR     32  19  58 CALM      30.08S
COPPER HARBOR    N/A     32  28  85 CALM      30.11R
IRONWOOD       CLOUDY    36  22  56 SE6       30.07R WCI  31
$$

ABBREVIATIONS USED IN REMARKS
   TC - TEMPERATURE IN CELSIUS
  WCI - WIND CHILL INDEX
   HX - HEAT INDEX
  VSB - VISIBILITY





USA.gov is the U.S. government's official web portal to all federal, state and local government web resources and services.